Location: Unspecified
(0.0000°N, 0.0000°E)
Time: 13:34:31
(UTC+00:00)

STARLINK-35348 - Pass Details

Date: 21 February 2026
Orbit: 474 x 476 km, 53.2° (Epoch: 14 March)

Event Time Altitude Azimuth Distance (km) Brightness Sun altitude
Rises 18:48:18 0° 194° (SSW) 2,522 6.3 -8.5°
Reaches altitude 10° 18:50:45 10° 180° (S) 1,640 5.2 -9.1°
Maximum altitude 18:53:48 24° 124° (SE) 1,022 3.6 -9.9°
Enters shadow 18:55:56 15° 79° (E) 1,362 3.9 -10.4°
